Location: ??????
(55.2000°N, 38.3000°E)
Time: 00:53:19
(UTC+00:00)

SL-16 R/B - Pass Details

Date: 15 November 2025
Orbit: 841 x 844 km, 71.0° (Epoch: 12 December)

Event Time Altitude Azimuth Distance (km) Brightness Sun altitude
Exits shadow 04:08:30 - 320° (NW) 2,906 4.4 -7.3°
Reaches altitude 10° 04:10:07 10° 331° (NNW) 2,478 4.2 -7.1°
Maximum altitude 04:13:56 18° 13° (NNE) 1,973 4.0 -6.6°
Drops below altitude 10° 04:17:44 10° 56° (NE) 2,476 5.1 -6.1°
Sets 04:21:02 0° 75° (ENE) 3,410 6.2 -5.7°
